Tracking 30923 objects as of 30-Jun-2025
HD Live streaming from Space Station
objects crossing your sky now

FENGYUN 1C DEB

Track FENGYUN 1C DEB now!
10-day predictions


NORAD ID: 35244
Int'l Code: 1999-025DRC
Perigee: 828.6 km
Apogee: 930.1 km
Inclination: 98.9 °
Period: 102.4 minutes
Semi major axis: 7250 km
RCS: 0.0028 m2 (small)
Launch date: May 10, 1999
Source: People's Republic of China (PRC)
Launch site: Taiyaun Space Center, China (TSC)

Note: This is SATELLITE DEBRIS
Your satellite tracking list
STARLINK-5129
Track 1 satellite(s)




NASA's NSSDC Master Catalog

Two Line Element Set (TLE):
1 35244U 99025DRC 25175.40289975  .00000745  00000-0  46859-3 0  9998
2 35244  98.8578 219.3851 0069965 278.2304  81.0934 14.06256697634133
Source of the keplerian elements: AFSPC